METEOR 2-5 DEB, 39603

Orbit data source: Space-Track

METEOR 2-5 DEB, 39603 is space debris in LEO originally from a launch on Wed, 31 Oct 1979 UTC launched from the Plesetsk Missile And Space Complex (PKMTR). Debris objects in space refer to the collection of defunct objects orbiting the Earth. Examples of debris include non-operational satellites, rocket bodies, and fragments generated from explosions, collisions, or faulty payload assembly.

Loading next visibility...
Identifier
39603, 1979-095CE
Orbit
LEO
Country
Flag of CISCIS
Related business
Manufacturer
Unknown
Mission
Spacecraft
Bus & Motor
Unknown
Mass
Unknown
Launch date (UTC)
1979-10-31 (46 years ago)
Launch vehicle
Unknown
Launch site
Plesetsk Missile And Space Complex (PKMTR)
Object type
Payload
Rocket body
Debris
Shape & HBR
Unknown shape, 0.1 m
Radar Cross Section
Small (<0.1 m²)

Expand to show TLE details & history
Last TLE update: 2 days ago

TLE from 2 days ago
0 METEOR 2-5 DEB
1 39603U 79095CE  25292.60824900  .00010521  00000-0  39443-2 0  9994
2 39603  81.2037  47.3523 0008318  82.0924 278.1202 14.31588350609019
Epoch: 2025-10-19T14:35Z
TLE epoch observation values (Epoch: 2025-10-19T14:35:52.713Z)
Latitude
-0.00007°
Longitude
160.06018°
Altitude
788.517 km
Speed
7.46 km/s
True Right ascension
03h 09m 24s
True Declination
0° 00' 00"
Sunlit
Object was in full shadow at epoch
Visualization orbit readout
Latitude
Unknown
Longitude
Unknown
Altitude
Unknown
Speed
Unknown
Apparent Right ascension
Unknown
Apparent Declination
Unknown
Sunlit
N/A
Visualization observer readout
Local Sidereal Time
01:19:36
Azimuth
Unknown
Elevation
Unknown
Doppler factor
Unknown
Orbital elements
Apogee altitude
789.531 km
Perigee altitude
777.617 km
Semi-major axis
7,161.711 km
Eccentricity
0.00083
Inclination
81.2037°
RAAN
47.3523°
Arg. of periapsis
82.0924°
True anomaly
278.02582°
Mean anomaly
278.1202°
Eccentric anomaly
278.07301°
Mean motion
3.58111 °/min
Orbital period
100.53 mins
BSTAR
0.0039443
Loading maneuver chart data...
Computing Atmospheric mass density...
Loading historical data...
Loading historical data...
Loading historical data...
Loading historical data...
Loading historical data...
Loading historical data...
Loading historical data...

Documentation

Showing up to 5 results
|